Flag for Canada Weather past 2 weeks in Arviat, Nunavut Territory, Canada

Now
12 °F

Light snow. Mostly cloudy.


Feels Like: -5 °F
Forecast: -10 / 0 °F
Wind: 17 mph from East

Location: Arviat Airport

Current Time: Dec 25, 2014 at 7:48:55 PM

Latest Report: Dec 25, 2014 at 7:02 PM


Visibility: 9 mi

Pressure: 29.86 "Hg

Humidity: 85%

Dew point: 9 °F

Location of ArviatLocation

Historic Weather in Arviat — Graph

°F

Arviat temperature yesterday

Maximum temperature yesterday: 19 °F (at 6:00 PM)
Minimum temperature yesterday: 9 °F (at 12:01 AM)
Average temperature yesterday: 15 °F

Past Weeks' High & Low Weather Summary

 TemperatureHumidityPressure
High19 °F (Dec 21, 7:00 PM)100% (Dec 10, 7:00 PM)30.41 "Hg (Dec 10, 7:00 PM)
Low-20 °F (Dec 15, 5:00 PM)75% (Dec 15, 6:00 PM)29.28 "Hg (Dec 10, 8:02 PM)
Average4 °F88%29.94 "Hg
* Reported Dec 10 7:00 PM — Dec 25 7:02 PM, Arviat, Weather by CustomWeather, © 2014

Note: Actual official high and low records may vary slightly from our data, if they occured in-between our weather recording intervals... More about our weather records

Advertising

Arviat weather history for previous 24 hours

 ConditionsComfort  
Time TempWeatherWind HumidityBarometerVisibility
7:02 PM
Dec 25
12 °FLight snow. Mostly cloudy.17 mph85%29.86 "Hg9 mi
6:00 PM10 °FLight snow. Passing clouds.10 mph92%29.86 "Hg9 mi
5:00 PM10 °FLight snow. Passing clouds.10 mph92%29.84 "Hg9 mi
4:00 PM12 °FLight snow. Overcast.14 mph92%29.82 "Hg2 mi
3:00 PM12 °FLight snow. Overcast.15 mph92%29.80 "Hg6 mi
2:00 PM12 °FLight snow. More clouds than sun.15 mph92%29.78 "Hg9 mi
1:00 PM12 °FLight snow. Mostly cloudy.14 mph92%29.77 "Hg9 mi
12:00 PM12 °FLight snow. Mostly cloudy.13 mph92%29.76 "Hg8 mi
11:00 AM12 °FLight snow. Mostly cloudy.13 mph100%29.76 "Hg9 mi
10:58 AM12 °FLight snow. Mostly cloudy.13 mph100%29.76 "Hg9 mi
10:00 AM12 °FLight snow. Overcast.14 mph92%29.75 "Hg9 mi
9:00 AM14 °FLight snow. Overcast.15 mph92%29.74 "Hg8 mi
8:00 AM14 °FLight snow. Overcast.15 mph92%29.72 "Hg2 mi
7:54 AM14 °FLight snow. Overcast.16 mph92%29.72 "Hg2 mi
7:00 AM16 °FLight snow. Low clouds.17 mph93%29.70 "Hg8 mi
6:00 AM16 °FLight snow. Mostly cloudy.17 mph93%29.70 "Hg4 mi
5:50 AM16 °FLight snow. Mostly cloudy.17 mph93%29.70 "Hg4 mi
5:00 AM16 °FLight snow. Overcast.16 mph93%29.69 "Hg2 mi
4:00 AM16 °FLight snow. Overcast.18 mph100%29.68 "Hg3 mi
3:00 AM18 °FLight snow. Overcast.17 mph93%29.68 "Hg4 mi
2:48 AM18 °FLight snow. Overcast.15 mph93%29.67 "Hg3 mi
2:00 AM18 °FLight snow. Overcast.20 mph93%29.67 "Hg1 mi
1:00 AM18 °FLight snow. Overcast.20 mph93%29.66 "Hg2 mi
12:04 AM18 °FLight snow. Overcast.18 mph93%29.66 "Hg3 mi
11:51 PM
Dec 24
18 °FLight snow. Overcast.18 mph93%29.65 "Hg2 mi
11:00 PM18 °FLight snow. Overcast.20 mph93%29.65 "Hg3 mi
10:56 PM18 °FLight snow. Overcast.21 mph93%29.65 "Hg2 mi
10:03 PM18 °FLight snow. Overcast.21 mph93%29.65 "Hg2 mi
9:00 PM18 °FLight snow. Low clouds.22 mph100%29.66 "Hg1 mi
8:53 PM18 °FLight snow. Mostly cloudy.21 mph100%29.66 "Hg1 mi
8:00 PM18 °FLight snow. Low clouds.21 mph100%29.67 "Hg1 mi
7:00 PM18 °FLight snow. Low clouds.22 mph100%29.67 "Hg1 mi
Weather by CustomWeather, © 2014

See weather overviewHow to use our weather pages